User: anonymous   Login
Location: Wildcat Hills Observatory
(41.6350°N, 103.6812°W)
Time: 20:56:45
(UTC-07:00)
Language:

Cosmos 1634 Rocket - Orbit

View from above orbital plane
View from above orbital plane
View from above satellite
View from above satellite

Ground track
Ground track

The orbit data is extracted from the following two-line orbital elements,

1 15598U 85022B   15063.14998834  .00000037  00000-0  22795-4 0  9995
2 15598 082.9404 008.4990 0020917 289.0113 197.8820 13.76504806505443
Epoch (UTC): 04 March 2015 03:35:58
Eccentricity: 0.0020917
inclination: 82.9404°
perigee height: 961 km
apogee height: 991 km
right ascension of ascending node: 8.4990°
argument of perigee: 289.0113°
revolutions per day: 13.76504806
mean anomaly at epoch: 197.8820°
orbit number at epoch: 50544

The dashed part of the orbit path shows where the satellite is in the earth's shadow,  

DLR